Location: Sevilla
(37.3933°N, 5.9839°W)
Time: 05:17:21
(UTC+02:00)

Vanguard 3 - Pass Details

Date: 03 July 2024
Orbit: 508 x 3231 km, 33.4° (Epoch: 15 July)

Event Time Altitude Azimuth Distance (km) Brightness Sun altitude
Rises 05:47:50 0° 216° (SW) 7,025 - -13.6°
Reaches altitude 10° 05:52:56 10° 210° (SSW) 6,121 - -12.8°
Exits shadow 05:53:23 11° 209° (SSW) 6,043 11.0 -12.8°
Maximum altitude 06:10:16 40° 149° (SSE) 3,912 10.5 -10.3°
Drops below altitude 10° 06:24:05 10° 87° (E) 4,967 12.1 -8.1°
Sets 06:27:39 0° 80° (E) 5,644 12.7 -7.5°
